Regional Weather Roundup
Issued by NWS Cleveland, OH

Home | Current Version | Previous Version | Graphics & Text | Print | Product List | Glossary On
Versions: 1 2 3 4 5 6 7 8 9 10 11 12 13 14 15 16 17 18 19 20 21 22 23 24 25 26 27 28 29 30 31 32 33 34 35 36 37 38 39 40 41 42 43 44 45 46 47 48 49 50
000
ASUS41 KCLE 301502
RWRCLE
OHIO REGIONAL WEATHER ROUNDUP
NATIONAL WEATHER SERVICE CLEVELAND, OH
1100 AM EDT SAT AUG 30 2014

NOTE: "FAIR" INDICATES FEW OR NO CLOUDS BELOW 12,000 FEET WITH NO
SIGNIFICANT WEATHER AND/OR OBSTRUCTIONS TO VISIBILITY.

OHZ001>008-015>018-024>027-034-035-043-044-301600-
   NORTHWEST OHIO

CITY           SKY/WX    TMP DP  RH WIND       PRES   REMARKS
DEFIANCE       CLOUDY    79  65  62 S10       29.97S
FINDLAY        PTSUNNY   82  67  60 SW14      30.00S
TOLEDO EXPRESS PTSUNNY   80  66  62 SW10      29.97S
TOLEDO EXEC    PTSUNNY   82  65  56 SW14G25   29.98F
LIMA           CLOUDY    79  67  66 SW14      30.02S
$$

OHZ009>014-019>023-028>033-038-089-301600-
   NORTHEAST OHIO

CITY           SKY/WX    TMP DP  RH WIND       PRES   REMARKS
CLE-HOPKINS    MOSUNNY   81  67  62 S12       30.05F
CLE-LAKEFRONT  SUNNY     84  65  52 S13       30.01F
CUY CO. ARPT   MOSUNNY   81  68  65 SW12      30.05S
LORAIN-ELYRIA  MOSUNNY   85  67  54 SW12      30.04S
ASHTABULA      SUNNY     78  67  68 S8        30.07F
AKRON-CANTON   MOSUNNY   81  68  64 SW12      30.09S
WOOSTER        SUNNY     79  69  71 SW8       30.08S
MANSFIELD      SUNNY     83  65  54 S14G22    30.07S
YOUNGSTOWN     MOSUNNY   77  67  71 S10       30.10S
$$

OHZ042-051>053-060>062-070>072-077>081-301600-
  SOUTHWEST OHIO

CITY           SKY/WX    TMP DP  RH WIND       PRES   REMARKS
CINC-COVINGTON PTSUNNY   81  64  56 SW10      30.07R
CINC-LUNKEN    MOSUNNY   82  68  62 S9        30.06S
HAMILTON       MOSUNNY   82  69  64 VRB5      30.06S
DAYTON         PTSUNNY   80  66  62 S14       30.06S
WRIGHT-PAT AFB NOT AVBL
DAYTON GENERAL SUNNY     80  68  66 S9        30.06S
WILMINGTON     SUNNY     81  66  60 S13       30.07F
$$

OHZ036-037-039>041-045>050-054>059-063>069-073>076-082>088-301600-
  CENTRAL AND SOUTHEAST OHIO

CITY           SKY/WX    TMP DP  RH WIND       PRES   REMARKS
COLUMBUS       PTSUNNY   85  64  49 SW12G18   30.06F
OSU AIRPORT    MOSUNNY   83  66  56 S9        30.06S
BOLTON FIELD   SUNNY     81  72  74 S9        30.07S
RICKENBACK AFB MOSUNNY   84  63  49 S10       30.06F
NEWARK         SUNNY     81  69  67 S6        30.07F
MARION         SUNNY     81  66  60 SW12      30.05S
LANCASTER      SUNNY     83  66  56 SW10      30.08F
ZANESVILLE     SUNNY     81  69  67 S9        30.10S
NEW PHILLY     SUNNY     79  71  76 S6        30.10S
$$


USA.gov is the U.S. government's official web portal to all federal, state and local government web resources and services.